User: anonymous   Login
Location: Hylvaty SDH
(49.9612°N, 16.4057°E)
Time: 08:04:44
(UTC+01:00)
Language:

Tiros 1 - Orbit

View from above orbital plane
View from above orbital plane
View from above satellite
View from above satellite

Ground track
Ground track

The orbit data is extracted from the following two-line orbital elements,

1    29U 60002B   20299.72229692 -.00000102 +00000-0 +15921-4 0  9996
2    29 048.3808 053.8278 0023539 069.7743 290.5697 14.74378542237763
Epoch (UTC): 25 October 2020 17:20:06
Eccentricity: 0.0023539
inclination: 48.3808°
perigee height: 630 km
apogee height: 663 km
right ascension of ascending node: 53.8278°
argument of perigee: 69.7743°
revolutions per day: 14.74378542
mean anomaly at epoch: 290.5697°
orbit number at epoch: 23776

The dashed part of the orbit path shows where the satellite is in the earth's shadow,  

DLR